Date_and_time,latitude,longitude,wind_speed,RelWindDirFrom,WindDirFrom,air_pressure,air_temperature,relative_humidity,Temp,platform_speed_wrt_ground,air_pressure_at_mean_sea_level,platform_orientation
2019-01-11 23:40,50.6304366666667,-96.9807616666667,8.1,10.1,342,1002.78,-12.4,93,0.70,0.0,1032.30,90.0
2019-01-11 23:50,50.630455,-96.9807666666667,8.7,10.8,348,1002.72,-12.3,92,0.69,0.0,1032.25,90.0
2019-01-12 00:00,50.630445,-96.98074,9.1,11.3,350,1002.79,-12.3,91,0.69,0.0,1032.33,122.3
2019-01-12 00:00,50.6304466666667,-96.980745,9.3,9.3,354,1002.87,-12.3,91,0.69,0.0,1032.42,111.5
2019-01-12 00:10,50.6304483333333,-96.980765,9.3,11.5,353,1002.89,-12.4,91,0.69,0.0,1032.47,111.5
2019-01-12 00:20,50.63045,-96.980765,9.3,11.5,353,1002.89,-12.4,91,0.69,0.0,1032.49,111.5
2019-01-12 00:30,50.6304416666667,-96.9807683333333,8.7,10.5,354,1002.91,-12.5,91,0.69,0.0,1032.55,111.5
2019-01-12 00:40,50.6304466666667,-96.9807733333333,9.3,11.4,354,1003.04,-12.5,91,0.70,0.0,1032.69,111.5
2019-01-12 00:50,50.6304583333333,-96.9807333333333,9.5,12.6,356,1003.08,-12.4,91,0.70,0.0,1032.73,111.5
2019-01-12 01:00,50.63045,-96.9807583333333,9.1,10.6,355,1003.22,-12.4,91,0.70,0.0,1032.88,90.0
2019-01-12 01:10,50.630445,-96.9808033333333,10.3,13.2,357,1003.29,-12.2,92,0.71,0.0,1032.93,90.0
2019-01-12 01:20,50.6304533333333,-96.9807683333333,10.1,12.3,356,1003.31,-12.1,92,0.71,0.0,1032.95,90.0
2019-01-12 01:30,50.6304533333333,-96.980765,10.5,13.2,356,1003.31,-12.2,92,0.71,0.0,1032.97,90.0
2019-01-12 01:40,50.6304533333333,-96.9807616666667,10.0,12.5,357,1003.36,-12.4,93,0.71,0.0,1033.02,90.0
2019-01-12 01:50,50.630455,-96.9807583333333,10.0,12.5,358,1003.37,-12.6,93,0.71,0.0,1033.04,90.0
2019-01-12 02:00,50.6304666666667,-96.98077,10.7,13.3,0,1003.47,-12.7,94,0.71,0.0,1033.16,351.6
2019-01-12 02:10,50.630465,-96.9807616666667,10.6,13.3,4,1003.54,-12.9,95,0.71,0.0,1033.24,351.6
2019-01-12 02:20,50.6304516666667,-96.9807783333333,10.2,12.3,6,1003.57,-13.0,95,0.71,0.0,1033.29,351.6
2019-01-12 02:30,50.630455,-96.980765,9.3,12.1,4,1003.53,-13.2,94,0.71,0.0,1033.24,351.6
2019-01-12 02:40,50.6304533333333,-96.9807666666667,9.1,11.3,3,1003.54,-13.3,94,0.72,0.0,1033.26,351.6
2019-01-12 02:50,50.630435,-96.9807483333333,9.2,11.1,5,1003.54,-13.4,94,0.72,0.0,1033.26,351.6
2019-01-12 03:00,50.630445,-96.980765,8.7,10.2,6,1003.36,-13.7,94,0.72,0.0,1033.09,246.4
2019-01-12 03:10,50.6304466666667,-96.980765,8.5,9.6,5,1003.29,-14.1,94,0.72,0.0,1033.03,246.4
2019-01-12 03:20,50.6304483333333,-96.9807666666667,9.2,10.9,8,1003.43,-14.1,95,0.72,0.0,1033.19,246.4
2019-01-12 03:30,50.6304516666667,-96.9807683333333,9.1,11.2,6,1003.56,-14.1,95,0.72,0.0,1033.33,246.4
2019-01-12 03:40,50.6304516666667,-96.9807683333333,8.3,9.7,6,1003.59,-14.5,94,0.72,0.0,1033.40,246.4
2019-01-12 03:50,50.6304516666667,-96.9807683333333,8.1,9.5,8,1003.53,-14.9,94,0.72,0.0,1033.37,246.4
2019-01-12 04:00,50.6304533333333,-96.9807683333333,7.4,8.5,5,1003.59,-15.4,94,0.72,0.0,1033.47,270.0
2019-01-12 04:10,50.6304533333333,-96.9807683333333,7.2,8.2,8,1003.61,-15.8,94,0.72,0.0,1033.52,270.0
2019-01-12 04:20,50.6304533333333,-96.9807666666667,6.9,8.2,14,1003.64,-16.1,94,0.72,0.0,1033.58,270.0
2019-01-12 04:30,50.63045,-96.9807466666667,6.0,6.7,10,1003.68,-16.7,93,0.72,0.0,1033.65,270.0
2019-01-12 04:40,50.6304583333333,-96.980765,6.5,7.3,8,1003.87,-16.8,93,0.72,0.0,1033.86,270.0
2019-01-12 04:50,50.6304583333333,-96.980765,6.6,7.4,2,1004.02,-16.6,94,0.72,0.0,1034.02,270.0
2019-01-12 05:00,50.6304566666667,-96.980765,7.4,8.5,356,1004.30,-16.6,94,0.72,0.0,1034.33,360.0
2019-01-12 05:10,50.630445,-96.9807766666667,7.1,8.4,354,1004.40,-16.4,94,0.72,0.0,1034.43,360.0
2019-01-12 05:20,50.6304316666667,-96.980745,6.9,8.3,351,1004.51,-16.5,94,0.72,0.0,1034.54,360.0
2019-01-12 05:30,50.6304416666667,-96.9807533333333,7.2,8.5,353,1004.50,-16.3,94,0.72,0.0,1034.55,360.0
2019-01-12 05:40,50.630445,-96.980755,7.2,9.4,360,1004.53,-16.3,94,0.72,0.0,1034.60,360.0
2019-01-12 05:50,50.630445,-96.9807566666667,7.0,8.9,2,1004.52,-16.4,93,0.72,0.0,1034.63,360.0
2019-01-12 06:00,50.630445,-96.98076,7.1,10.0,2,1004.55,-16.5,93,0.72,0.0,1034.68,90.0
2019-01-12 06:10,50.630445,-96.98076,6.6,8.6,3,1004.60,-16.7,93,0.72,0.0,1034.77,90.0
2019-01-12 06:20,50.6304466666667,-96.98076,7.5,9.1,3,1004.62,-16.8,93,0.72,0.0,1034.83,90.0
2019-01-12 06:30,50.6304666666667,-96.98077,7.8,9.5,5,1004.59,-16.8,93,0.71,0.0,1034.81,90.0
2019-01-12 06:40,50.6304533333333,-96.9807816666667,7.3,8.9,7,1004.60,-17.0,92,0.71,0.0,1034.82,90.0
2019-01-12 06:50,50.6304416666667,-96.9807633333333,7.1,8.5,7,1004.62,-17.1,92,0.71,0.0,1034.85,90.0
2019-01-12 07:00,50.6304533333333,-96.9807666666667,6.6,8.2,3,1004.66,-17.1,92,0.71,0.0,1034.87,0.0
2019-01-12 07:10,50.6304533333333,-96.980765,6.3,7.6,3,1004.71,-17.1,92,0.71,0.0,1034.93,0.0
2019-01-12 07:20,50.63045,-96.9807633333333,6.5,7.9,5,1004.74,-17.2,92,0.71,0.0,1034.95,0.0
2019-01-12 07:30,50.63045,-96.9807633333333,6.6,8.1,5,1004.77,-17.3,92,0.71,0.0,1034.99,0.0
2019-01-12 07:40,50.63044,-96.9807716666667,6.6,7.8,5,1004.76,-17.5,91,0.70,0.0,1035.00,0.0
2019-01-12 07:50,50.630455,-96.980765,6.2,7.4,3,1004.85,-17.8,91,0.71,0.0,1035.11,0.0
2019-01-12 08:00,50.6304566666667,-96.9807716666667,6.2,7.4,2,1004.94,-17.8,91,0.71,0.0,1035.22,270.0
2019-01-12 08:10,50.6304516666667,-96.9807733333333,5.3,6.7,2,1005.00,-17.8,91,0.70,0.0,1035.29,270.0
2019-01-12 08:20,50.630455,-96.9807733333333,5.5,6.7,4,1005.10,-17.8,91,0.71,0.0,1035.39,270.0
2019-01-12 08:30,50.6304533333333,-96.9807716666667,4.8,6.0,3,1005.12,-17.9,90,0.71,0.0,1035.43,270.0
2019-01-12 08:40,50.6304416666667,-96.9807833333333,4.2,4.8,8,1005.03,-17.9,90,0.71,0.0,1035.35,270.0
2019-01-12 08:50,50.6304433333333,-96.9807716666667,3.7,4.2,12,1004.98,-17.9,90,0.71,0.0,1035.29,270.0
2019-01-12 09:00,50.630485,-96.980775,3.4,3.8,7,1005.07,-17.6,91,0.71,0.0,1035.37,360.0
2019-01-12 09:10,50.6304533333333,-96.9807683333333,3.7,5.0,7,1005.22,-17.2,92,0.71,0.0,1035.50,360.0
2019-01-12 09:20,50.6304583333333,-96.98077,3.0,4.2,7,1005.20,-17.0,92,0.71,0.0,1035.48,360.0
2019-01-12 09:30,50.6304533333333,-96.9807616666667,1.6,2.5,0,1005.13,-16.6,92,0.70,0.0,1035.39,360.0
2019-01-12 09:40,50.630445,-96.98076,1.5,2.2,353,1005.21,-16.1,93,0.70,0.0,1035.46,360.0
2019-01-12 09:50,50.6304466666667,-96.98076,2.5,3.1,341,1005.32,-15.6,94,0.70,0.0,1035.54,360.0
2019-01-12 10:00,50.630445,-96.9807616666667,2.0,2.7,6,1005.15,-15.3,94,0.70,0.0,1035.36,165.5
2019-01-12 10:10,50.6304466666667,-96.9807633333333,1.9,2.5,3,1005.14,-15.0,95,0.70,0.0,1035.33,165.5
2019-01-12 10:20,50.6304383333333,-96.9808,2.3,3.0,351,1005.20,-15.0,95,0.70,0.0,1035.39,165.5
2019-01-12 10:30,50.630445,-96.9807766666667,2.4,3.2,344,1005.22,-14.7,96,0.70,0.0,1035.39,165.5
2019-01-12 10:40,50.630445,-96.9807733333333,2.0,3.0,355,1005.15,-14.3,96,0.71,0.0,1035.30,165.5
2019-01-12 10:50,50.63045,-96.98077,2.1,3.1,6,1004.95,-14.1,96,0.70,0.0,1035.07,165.5
2019-01-12 11:00,50.6304533333333,-96.9807633333333,2.5,3.4,13,1004.87,-13.7,97,0.70,0.0,1034.94,90.0
2019-01-12 11:10,50.6304516666667,-96.9807633333333,3.1,3.8,12,1004.79,-13.3,98,0.70,0.0,1034.82,90.0
2019-01-12 11:20,50.6304533333333,-96.980765,2.7,3.2,10,1004.81,-13.0,99,0.70,0.0,1034.79,90.0
2019-01-12 11:30,50.6304516666667,-96.980765,2.9,3.6,2,1004.85,-12.7,99,0.70,0.0,1034.79,90.0
2019-01-12 11:40,50.6304466666667,-96.9807766666667,2.7,3.5,8,1004.82,-12.4,99,0.70,0.0,1034.71,90.0
2019-01-12 11:50,50.630445,-96.9807716666667,3.3,3.8,37,1004.67,-11.9,99,0.70,0.0,1034.51,90.0
2019-01-12 12:00,50.6304683333333,-96.980775,3.8,4.7,46,1004.65,-11.7,99,0.70,0.0,1034.46,161.1
2019-01-12 12:10,50.6304416666667,-96.9807733333333,3.7,4.3,42,1004.69,-11.6,99,0.71,0.0,1034.50,161.1
2019-01-12 12:20,50.630445,-96.9807666666667,3.7,4.4,39,1004.65,-11.5,99,0.71,0.0,1034.43,161.1
2019-01-12 12:30,50.6304466666667,-96.9807666666667,3.3,4.1,48,1004.43,-11.5,99,0.71,0.0,1034.19,161.1
2019-01-12 12:40,50.6304483333333,-96.9807666666667,3.3,4.0,48,1004.42,-11.5,99,0.71,0.0,1034.16,161.1
2019-01-12 12:50,50.6304516666667,-96.9807666666667,3.1,3.6,51,1004.47,-11.4,99,0.71,0.0,1034.18,161.1
2019-01-12 13:00,50.6304583333333,-96.9807616666667,3.0,3.7,50,1004.41,-11.4,99,0.71,0.0,1034.10,360.0
2019-01-12 13:10,50.630455,-96.9807666666667,2.6,3.1,59,1004.42,-11.3,99,0.71,0.0,1034.09,360.0
2019-01-12 13:20,50.6304633333333,-96.980765,2.6,3.4,62,1004.43,-11.1,99,0.71,0.0,1034.07,360.0
2019-01-12 13:30,50.630455,-96.980755,3.0,3.7,64,1004.39,-11.0,99,0.71,0.0,1034.00,360.0
2019-01-12 13:40,50.6304583333333,-96.9807733333333,3.0,3.9,62,1004.48,-11.0,99,0.71,0.0,1034.07,360.0
2019-01-12 13:50,50.630455,-96.980775,3.0,3.5,66,1004.49,-10.9,99,0.71,0.0,1034.06,360.0
2019-01-12 14:00,50.6304566666667,-96.980775,3.2,3.8,72,1004.48,-10.9,99,0.72,0.0,1034.04,270.0
2019-01-12 14:10,50.630425,-96.9807566666667,3.2,3.6,75,1004.44,-10.9,99,0.72,0.0,1034.00,270.0
2019-01-12 14:20,50.6304583333333,-96.98077,3.0,3.5,77,1004.47,-10.9,99,0.72,0.0,1034.03,270.0
2019-01-12 14:30,50.63046,-96.9807716666667,3.2,4.5,88,1004.39,-10.9,99,0.72,0.0,1033.95,270.0
2019-01-12 14:40,50.6304583333333,-96.98077,4.6,4.9,100,1004.33,-10.9,99,0.72,0.0,1033.88,270.0
2019-01-12 14:50,50.6304583333333,-96.9807716666667,3.9,4.5,104,1004.41,-11.0,99,0.72,0.0,1033.97,270.0
2019-01-12 15:00,50.6304583333333,-96.9807733333333,2.7,3.9,120,1004.54,-10.8,99,0.72,0.0,1034.08,360.0
2019-01-12 15:10,50.63046,-96.98077,2.5,3.5,132,1004.67,-11.0,99,0.72,0.0,1034.22,360.0
2019-01-12 15:20,50.6304566666667,-96.98077,3.8,5.2,131,1004.53,-10.6,99,0.72,0.0,1034.04,360.0
2019-01-12 15:30,50.6304566666667,-96.98077,4.3,5.7,137,1004.45,-10.8,99,0.72,0.0,1033.98,360.0
2019-01-12 15:40,50.6304566666667,-96.9807716666667,4.6,6.2,140,1004.48,-10.7,99,0.72,0.0,1033.99,360.0
2019-01-12 15:50,50.630455,-96.98077,5.1,6.2,141,1004.46,-10.6,99,0.72,0.0,1033.97,360.0
2019-01-12 16:00,50.630455,-96.98077,5.2,6.4,147,1004.48,-10.6,99,0.72,0.0,1033.99,192.6
2019-01-12 16:10,50.6304566666667,-96.98077,3.9,5.1,150,1004.68,-10.5,99,0.72,0.0,1034.18,192.6
2019-01-12 16:20,50.6304683333333,-96.9807533333333,3.7,4.6,149,1004.67,-10.4,99,0.72,0.0,1034.17,192.6
2019-01-12 16:30,50.6304633333333,-96.9807533333333,4.6,5.5,145,1004.57,-10.4,99,0.72,0.0,1034.07,192.6
2019-01-12 16:40,50.6304516666667,-96.98076,4.6,5.3,147,1004.48,-10.4,99,0.71,0.0,1033.98,192.6
2019-01-12 16:50,50.6304466666667,-96.98076,4.3,5.5,147,1004.48,-10.3,99,0.72,0.0,1033.97,192.6
2019-01-12 17:00,50.6304483333333,-96.9807583333333,4.7,5.7,145,1004.44,-10.2,99,0.71,0.0,1033.92,119.2
2019-01-12 17:10,50.6304483333333,-96.9807583333333,4.5,5.6,148,1004.35,-10.1,99,0.71,0.0,1033.81,119.2
2019-01-12 17:20,50.6304383333333,-96.9807466666667,5.1,6.0,146,1004.22,-9.9,99,0.72,0.0,1033.67,119.2
2019-01-12 17:30,50.63044,-96.98076,4.5,6.1,154,1004.20,-9.7,99,0.72,0.0,1033.64,119.2
2019-01-12 17:40,50.6304566666667,-96.9807633333333,3.8,5.1,164,1004.33,-9.5,99,0.72,0.0,1033.76,119.2
2019-01-12 17:50,50.6304566666667,-96.9807616666667,3.7,4.8,166,1004.34,-9.3,99,0.72,0.0,1033.75,119.2
2019-01-12 18:00,50.6304533333333,-96.98076,3.5,4.5,163,1004.27,-9.2,99,0.72,0.0,1033.67,125.3
2019-01-12 18:10,50.63045,-96.98076,3.8,4.8,157,1004.22,-9.0,99,0.72,0.0,1033.60,125.3
2019-01-12 18:20,50.6304483333333,-96.9807616666667,4.4,5.7,149,1004.15,-8.9,99,0.72,0.0,1033.52,125.3
2019-01-12 18:30,50.63045,-96.9807616666667,4.9,5.8,142,1003.91,-8.7,99,0.72,0.0,1033.26,125.3
2019-01-12 18:40,50.63045,-96.9807633333333,5.2,6.2,141,1003.69,-8.6,99,0.72,0.0,1033.03,125.3
2019-01-12 18:50,50.63045,-96.980765,5.8,6.6,143,1003.54,-8.6,99,0.72,0.0,1032.86,125.3
2019-01-12 19:00,50.6304483333333,-96.9807633333333,4.9,5.8,146,1003.45,-8.5,99,0.72,0.0,1032.76,142.0
2019-01-12 19:10,50.63045,-96.9807633333333,4.6,5.9,149,1003.36,-8.5,99,0.73,0.0,1032.66,142.0
2019-01-12 19:20,50.63045,-96.980765,4.4,5.3,150,1003.27,-8.4,99,0.73,0.0,1032.55,142.0
2019-01-12 19:30,50.63045,-96.980765,5.0,6.3,151,1003.09,-8.3,99,0.74,0.0,1032.35,142.0
2019-01-12 19:40,50.63045,-96.980765,4.7,5.7,153,1002.92,-8.2,99,0.74,0.0,1032.16,142.0
2019-01-12 19:50,50.63045,-96.980765,6.4,9.0,150,1002.78,-7.9,99,0.74,0.0,1031.99,142.0
2019-01-12 20:00,50.63045,-96.980765,7.5,9.1,150,1002.72,-7.7,99,0.74,0.0,1031.91,347.4
2019-01-12 20:10,50.63045,-96.980765,7.8,9.8,149,1002.57,-7.7,99,0.75,0.0,1031.74,347.4
2019-01-12 20:20,50.63045,-96.9807666666667,8.5,10.3,149,1002.36,-7.6,99,0.74,0.0,1031.52,347.4
2019-01-12 20:30,50.6304783333333,-96.98079,7.9,9.3,152,1002.32,-7.5,99,0.74,0.0,1031.46,347.4
2019-01-12 20:40,50.6304533333333,-96.9807766666667,8.0,11.5,154,1002.18,-7.4,99,0.73,0.0,1031.31,347.4
2019-01-12 20:50,50.6304483333333,-96.9807766666667,10.0,12.6,164,1001.99,-7.1,99,0.74,0.0,1031.10,347.4
2019-01-12 21:00,50.6304483333333,-96.9807766666667,10.3,12.5,163,1001.86,-7.0,99,0.74,0.0,1030.95,240.8
2019-01-12 21:10,50.63045,-96.980775,9.6,11.4,165,1001.84,-7.0,99,0.74,0.0,1030.93,240.8
2019-01-12 21:20,50.63045,-96.9807733333333,10.7,12.6,164,1001.78,-6.9,99,0.74,0.0,1030.86,240.8
2019-01-12 21:30,50.6304516666667,-96.9807733333333,10.4,13.2,164,1001.70,-6.9,99,0.74,0.0,1030.77,240.8
2019-01-12 21:40,50.6304516666667,-96.9807733333333,10.5,13.9,169,1001.72,-6.8,99,0.74,0.0,1030.76,240.8
2019-01-12 21:50,50.6304516666667,-96.9807716666667,10.6,13.3,168,1001.58,-6.7,99,0.75,0.0,1030.61,240.8
2019-01-12 22:00,50.6304516666667,-96.98077,10.5,13.4,168,1001.65,-6.7,99,0.75,0.0,1030.68,360.0
2019-01-12 22:10,50.6304183333333,-96.9807533333333,8.9,11.3,168,1001.75,-6.7,99,0.75,0.0,1030.77,360.0
2019-01-12 22:20,50.6304416666667,-96.9807466666667,9.2,11.4,167,1001.72,-6.7,99,0.75,0.0,1030.73,360.0
2019-01-12 22:30,50.6304433333333,-96.98075,9.2,11.9,170,1001.67,-6.7,99,0.75,0.0,1030.67,360.0
2019-01-12 22:40,50.6304466666667,-96.9807533333333,7.0,9.9,181,1001.69,-6.7,99,0.75,0.0,1030.69,360.0
2019-01-12 22:50,50.6304483333333,-96.9807533333333,7.2,9.1,182,1001.54,-7.0,99,0.75,0.0,1030.54,360.0
2019-01-12 23:00,50.6304466666667,-96.9807533333333,6.7,7.9,184,1001.48,-7.3,99,0.75,0.0,1030.49,125.3
2019-01-12 23:10,50.6304416666667,-96.9807616666667,7.3,9.2,181,1001.35,-7.4,99,0.76,0.0,1030.37,125.3
2019-01-12 23:20,50.6304533333333,-96.98076,7.5,8.8,182,1001.20,-7.4,99,0.76,0.0,1030.20,125.3
2019-01-12 23:30,50.630455,-96.9807566666667,7.7,9.6,182,1001.09,-7.3,99,0.76,0.0,1030.09,125.3
2019-01-12 23:40,50.630455,-96.9807583333333,7.5,9.3,185,1001.05,-7.2,99,0.76,0.0,1030.03,125.3
